30.06.2024;16:00;69
30.06.2024;15:00;68
30.06.2024;14:00;76
30.06.2024;13:00;80
30.06.2024;12:00;84
30.06.2024;11:00;80
30.06.2024;10:00;83
30.06.2024;09:00;70
30.06.2024;08:00;73
30.06.2024;07:00;79
30.06.2024;06:00;82
30.06.2024;05:00;86
30.06.2024;04:00;87
30.06.2024;03:00;69
30.06.2024;02:00;67
30.06.2024;01:00;76
30.06.2024;00:00;76
29.06.2024;23:00;77
29.06.2024;22:00;78
29.06.2024;21:00;87
29.06.2024;20:00;95
29.06.2024;19:00;101
29.06.2024;18:00;104
29.06.2024;17:00;109
29.06.2024;16:00;110
29.06.2024;15:00;105
29.06.2024;14:00;102
29.06.2024;13:00;96
29.06.2024;12:00;87
29.06.2024;11:00;76
29.06.2024;10:00;63
29.06.2024;09:00;45
29.06.2024;08:00;39
29.06.2024;07:00;39
29.06.2024;06:00;42
29.06.2024;05:00;49
29.06.2024;04:00;43
29.06.2024;03:00;48
29.06.2024;02:00;47
29.06.2024;01:00;40
29.06.2024;00:00;44
28.06.2024;23:00;44
28.06.2024;22:00;60
28.06.2024;21:00;79
28.06.2024;20:00;92
28.06.2024;19:00;91
28.06.2024;18:00;91
28.06.2024;17:00;93
